CW0060 Weather Reports


Display with metric or nautical units.
time (UTC)temp
F
wind
direction
speed
MPH
gust
MPH
rain 1hr
in
rain 24hr
in
rain mn
in
humidity
%
barometer
mb
20260905053206 60 269 2.0 3.0 0.00 0.00 0.00 82 1019.3
20260905052705 60 217 2.0 5.0 0.00 0.00 0.00 82 1019.2
20260905052204 60 135 2.0 5.0 0.00 0.00 0.00 82 1019.1
20260905051705 61 231 2.0 4.0 0.00 0.00 0.00 82 1019.1
20260905050706 61 245 2.0 4.0 0.00 0.00 0.00 82 1019.1
20260905050205 61 219 1.0 4.0 0.00 0.00 0.00 82 1019.1
20260905045706 61 229 2.0 4.0 0.00 0.00 0.00 82 1019.1
20260905045206 61 250 2.0 4.0 0.00 0.00 0.00 82 1019.1
20260905044705 61 222 2.0 5.0 0.00 0.00 0.00 82 1019.1
20260905044206 61 233 3.0 5.0 0.00 0.00 0.00 82 1018.8
20260905043705 61 222 3.0 5.0 0.00 0.00 0.00 82 1019.0
20260905043206 61 217 2.0 5.0 0.00 0.00 0.00 81 1018.8
20260905042705 61 226 2.0 4.0 0.00 0.00 0.00 81 1018.9
20260905042205 61 245 2.0 4.0 0.00 0.00 0.00 81 1018.7
20260905041705 61 229 2.0 4.0 0.00 0.00 0.00 81 1018.7
20260905041205 61 233 2.0 6.0 0.00 0.00 0.00 81 1018.7
20260905040705 61 295 2.0 6.0 0.00 0.00 0.00 81 1018.6
20260905040205 61 11 3.0 6.0 0.00 0.00 0.00 81 1018.5
20260905035705 61 236 3.0 4.0 0.00 0.00 0.00 81 1018.4
20260905035206 61 190 2.0 4.0 0.00 0.00 0.00 81 1018.5
20260905034705 61 250 1.0 4.0 0.00 0.00 0.00 81 1018.5
20260905034205 61 314 1.0 3.0 0.00 0.00 0.00 81 1018.6
20260905033704 61 20 1.0 4.0 0.00 0.00 0.00 81 1018.4
20260905033206 60 302 1.0 4.0 0.00 0.00 0.00 80 1018.4
20260905032705 60 178 2.0 5.0 0.00 0.00 0.00 80 1018.3
20260905032206 60 222 3.0 6.0 0.00 0.00 0.00 80 1018.2
20260905031707 60 220 3.0 6.0 0.00 0.00 0.00 80 1018.1
20260905031206 60 219 3.0 6.0 0.00 0.00 0.00 80 1018.1
20260905030705 61 257 4.0 6.0 0.00 0.00 0.00 80 1018.1
20260905030220 61 217 4.0 5.0 0.00 0.00 0.00 80 1017.9
20260905025706 61 229 3.0 5.0 0.00 0.00 0.00 79 1018.0
20260905025206 61 199 2.0 4.0 0.00 0.00 0.00 79 1017.9
20260905024205 61 212 1.0 3.0 0.00 0.00 0.00 78 1018.0
20260905023705 61 238 2.0 3.0 0.00 0.00 0.00 78 1018.0
20260905023205 61 277 2.0 2.0 0.00 0.00 0.00 78 1017.9
20260905022705 61 193 1.0 2.0 0.00 0.00 0.00 78 1017.9
20260905022207 61 295 1.0 2.0 0.00 0.00 0.00 78 1017.9
20260905021705 61 240 1.0 2.0 0.00 0.00 0.00 77 1017.8
20260905021205 61 240 1.0 2.0 0.00 0.00 0.00 77 1017.9
20260905020706 61 314 1.0 2.0 0.00 0.00 0.00 77 1017.8
20260905020205 61 212 1.0 2.0 0.00 0.00 0.00 77 1017.7
20260905015705 61 284 1.0 3.0 0.00 0.00 0.00 77 1017.8
20260905015204 61 324 1.0 3.0 0.00 0.00 0.00 77 1017.8
20260905014704 61 222 1.0 3.0 0.00 0.00 0.00 76 1017.7
20260905014205 62 151 1.0 3.0 0.00 0.00 0.00 76 1017.7
20260905013706 62 178 1.0 3.0 0.00 0.00 0.00 76 1017.7
20260905013205 62 122 1.0 3.0 0.00 0.00 0.00 75 1017.7
20260905012705 62 46 1.0 3.0 0.00 0.00 0.00 75 1017.8
20260905012206 62 193 1.0 3.0 0.00 0.00 0.00 75 1017.8
20260905011705 62 1 1.0 3.0 0.00 0.00 0.00 75 1018.0
20260905011206 62 314 1.0 3.0 0.00 0.00 0.00 74 1018.0
20260905010205 62 344 1.0 6.0 0.00 0.00 0.00 74 1017.7
20260905005705 62 46 2.0 8.0 0.00 0.00 0.00 73 1017.4
20260905005205 63 255 3.0 8.0 0.00 0.00 0.00 72 1017.4
20260905004705 63 264 2.0 11.0 0.00 0.00 0.00 72 1017.2
20260905004206 63 257 3.0 11.0 0.00 0.00 0.00 71 1017.5
20260905003706 63 269 3.0 11.0 0.00 0.00 0.00 71 1017.3
20260905002734 63 286 2.0 10.0 0.00 0.00 0.00 70 1017.1
20260905002205 63 283 2.0 10.0 0.00 0.00 0.00 70 1017.0
20260905001705 63 210 4.0 10.0 0.00 0.00 0.00 70 1016.6
20260905001205 63 198 4.0 11.0 0.00 0.00 0.00 70 1016.6
20260905000706 63 309 4.0 11.0 0.00 0.00 0.00 70 1016.8
20260905000205 63 311 4.0 11.0 0.00 0.00 0.00 70 1016.8
20260904235705 63 13 3.0 7.0 0.00 0.00 0.00 70 1016.7
20260904235206 63 300 2.0 7.0 0.00 0.00 0.00 71 1016.8
20260904234704 64 309 3.0 6.0 0.00 0.00 0.00 71 1016.7
20260904234205 64 240 3.0 6.0 0.00 0.00 0.00 71 1016.8
20260904233706 64 236 2.0 4.0 0.00 0.00 0.00 71 1016.8
20260904232706 64 259 2.0 4.0 0.00 0.00 0.00 70 1016.7
20260904232206 64 269 2.0 11.0 0.00 0.00 0.00 70 1016.5
20260904231705 64 269 3.0 11.0 0.00 0.00 0.00 69 1016.6
20260904231205 64 283 3.0 11.0 0.00 0.00 0.00 69 1016.6
20260904230705 64 269 4.0 10.0 0.00 0.00 0.00 69 1016.8
20260904230205 64 284 5.0 10.0 0.00 0.00 0.00 69 1016.6
20260904225205 65 290 5.0 14.0 0.00 0.00 0.00 67 1016.8
20260904224705 65 298 6.0 14.0 0.00 0.00 0.00 66 1016.7
20260904224206 65 269 5.0 11.0 0.00 0.00 0.00 65 1016.8
20260904223205 65 253 3.0 7.0 0.00 0.00 0.00 65 1016.7
20260904222206 66 300 3.0 16.0 0.00 0.00 0.00 66 1016.4
20260904221707 66 281 5.0 16.0 0.00 0.00 0.00 65 1016.5
20260904221206 66 293 6.0 20.0 0.00 0.00 0.00 64 1016.6
20260904220706 67 300 7.0 21.0 0.00 0.00 0.00 64 1016.7
20260904220205 67 8 8.0 21.0 0.00 0.00 0.00 63 1016.8
20260904215705 67 343 8.0 21.0 0.00 0.00 0.00 64 1017.0
20260904215206 68 344 7.0 18.0 0.00 0.00 0.00 64 1016.7
20260904214707 68 304 8.0 20.0 0.00 0.00 0.00 62 1016.5
20260904213705 69 295 10.0 22.0 0.00 0.00 0.00 60 1016.2
20260904213206 69 290 9.0 22.0 0.00 0.00 0.00 62 1015.9
20260904212205 71 285 10.0 22.0 0.00 0.00 0.00 64 1015.8
20260904211705 72 320 10.0 23.0 0.00 0.00 0.00 64 1015.8
20260904211211 73 350 9.0 23.0 0.00 0.00 0.00 63 1015.3
20260904210705 74 285 9.0 23.0 0.00 0.00 0.00 62 1015.1
20260904210205 75 290 10.0 22.0 0.00 0.00 0.00 61 1014.8
20260904205707 76 35 9.0 22.0 0.00 0.00 0.00 59 1014.7
20260904204705 76 297 8.0 16.0 0.00 0.00 0.00 58 1013.9
20260904204205 76 286 8.0 19.0 0.00 0.00 0.00 57 1013.9
20260904203705 77 283 8.0 23.0 0.00 0.00 0.00 57 1013.7
20260904203205 77 293 9.0 23.0 0.00 0.00 0.00 57 1013.7
20260904201205 77 286 9.0 19.0 0.00 0.00 0.00 56 1013.5
20260904200705 78 217 10.0 19.0 0.00 0.00 0.00 56 1013.4
20260904195706 78 255 8.0 17.0 0.00 0.00 0.00 55 1013.1
20260904195205 78 250 8.0 15.0 0.00 0.00 0.00 55 1013.1
20260904194705 78 258 7.0 17.0 0.00 0.00 0.00 55 1013.0
20260904194207 78 250 8.0 18.0 0.00 0.00 0.00 55 1012.8
20260904193705 78 269 9.0 18.0 0.00 0.00 0.00 55 1012.8
20260904193206 78 252 9.0 21.0 0.00 0.00 0.00 55 1012.8
20260904192706 78 293 10.0 21.0 0.00 0.00 0.00 54 1012.8
20260904192205 78 233 10.0 16.0 0.00 0.00 0.00 54 1012.7
20260904191705 78 264 8.0 16.0 0.00 0.00 0.00 54 1012.7
20260904191227 78 255 9.0 16.0 0.00 0.00 0.00 54 1012.6
20260904190726 78 265 8.0 14.0 0.00 0.00 0.00 54 1012.6
20260904190221 78 255 7.0 13.0 0.00 0.00 0.00 54 1012.5
20260904185705 78 269 7.0 12.0 0.00 0.00 0.00 53 1012.5
20260904184705 79 248 6.0 11.0 0.00 0.00 0.00 52 1012.5
20260904184206 79 262 6.0 11.0 0.00 0.00 0.00 52 1012.4
20260904183705 79 208 6.0 14.0 0.00 0.00 0.00 52 1012.2
20260904183206 79 281 6.0 14.0 0.00 0.00 0.00 51 1012.2
20260904181705 79 269 7.0 12.0 0.00 0.00 0.00 50 1012.2
20260904181205 80 265 6.0 13.0 0.00 0.00 0.00 50 1012.2
20260904180705 80 239 6.0 13.0 0.00 0.00 0.00 50 1012.1
20260904180205 80 236 6.0 13.0 0.00 0.00 0.00 49 1011.9
20260904175205 80 238 6.0 15.0 0.00 0.00 0.00 49 1012.0
20260904174705 80 296 7.0 15.0 0.00 0.00 0.00 48 1011.9
20260904174226 81 245 7.0 12.0 0.00 0.00 0.00 48 1011.8
20260904173705 81 271 6.0 15.0 0.00 0.00 0.00 48 1011.8
20260904173205 81 236 7.0 17.0 0.00 0.00 0.00 47 1011.8
20260904172705 81 351 8.0 25.0 0.00 0.00 0.00 47 1011.8
20260904172234 81 250 9.0 25.0 0.00 0.00 0.00 47 1011.7
20260904171704 81 243 10.0 25.0 0.00 0.00 0.00 47 1011.7
20260904171207 81 231 10.0 19.0 0.00 0.00 0.00 47 1011.7
20260904170705 81 243 10.0 21.0 0.00 0.00 0.00 47 1011.7
20260904165705 82 266 11.0 16.0 0.00 0.00 0.00 47 1011.8
20260904165207 82 252 9.0 19.0 0.00 0.00 0.00 47 1011.6
20260904164705 82 257 9.0 21.0 0.00 0.00 0.00 47 1011.8
20260904164205 82 234 11.0 27.0 0.00 0.00 0.00 47 1011.8
20260904163205 82 255 14.0 27.0 0.00 0.00 0.00 47 1011.8
20260904162705 82 214 11.0 23.0 0.00 0.00 0.00 47 1011.8
20260904162205 82 250 11.0 25.0 0.00 0.00 0.00 47 1011.8
20260904161705 83 231 13.0 25.0 0.00 0.00 0.00 46 1011.7
20260904161205 83 248 12.0 21.0 0.00 0.00 0.00 45 1011.6
20260904160706 84 236 10.0 26.0 0.00 0.00 0.00 45 1011.7
20260904160206 84 236 13.0 26.0 0.00 0.00 0.00 44 1011.7
20260904155705 85 271 15.0 26.0 0.00 0.00 0.00 44 1011.7
20260904155205 85 271 14.0 25.0 0.00 0.00 0.00 43 1011.6
20260904154704 85 221 14.0 27.0 0.00 0.00 0.00 43 1011.5
20260904154208 85 227 15.0 27.0 0.00 0.00 0.00 44 1011.5
20260904153705 85 226 15.0 27.0 0.00 0.00 0.00 44 1011.6
20260904153227 85 226 17.0 27.0 0.00 0.00 0.00 43 1011.6
20260904152705 85 262 17.0 25.0 0.00 0.00 0.00 43 1011.7
20260904152206 85 248 15.0 25.0 0.00 0.00 0.00 43 1011.6
20260904151705 85 234 14.0 25.0 0.00 0.00 0.00 44 1011.6
20260904151205 86 295 14.0 25.0 0.00 0.00 0.00 43 1011.7
20260904150205 85 252 14.0 25.0 0.00 0.00 0.00 43 1011.5
20260904145706 86 281 13.0 23.0 0.00 0.00 0.00 43 1011.8
20260904145205 86 229 13.0 27.0 0.00 0.00 0.00 44 1011.7
20260904144705 85 271 14.0 27.0 0.00 0.00 0.00 44 1011.6
20260904144206 85 196 13.0 27.0 0.00 0.00 0.00 44 1011.7
20260904143705 85 278 13.0 21.0 0.00 0.00 0.00 44 1011.7
20260904143205 85 255 12.0 20.0 0.00 0.00 0.00 44 1011.8
20260904142706 85 237 12.0 24.0 0.00 0.00 0.00 44 1011.8
20260904142205 85 281 12.0 28.0 0.00 0.00 0.00 44 1011.8
20260904141705 84 231 15.0 28.0 0.00 0.00 0.00 45 1011.9
20260904141225 84 222 14.0 28.0 0.00 0.00 0.00 45 1012.1
20260904140734 84 243 12.0 23.0 0.00 0.00 0.00 46 1012.0
20260904140206 84 219 13.0 32.0 0.00 0.00 0.00 46 1012.0
20260904135705 83 246 15.0 32.0 0.00 0.00 0.00 46 1012.2
20260904135206 83 233 13.0 19.0 0.00 0.00 0.00 47 1012.2
20260904134705 84 241 11.0 19.0 0.00 0.00 0.00 48 1012.3
20260904134205 83 231 12.0 19.0 0.00 0.00 0.00 47 1012.3
20260904133706 84 281 12.0 19.0 0.00 0.00 0.00 47 1012.5
20260904133206 84 219 12.0 19.0 0.00 0.00 0.00 47 1012.5
20260904132705 84 231 12.0 19.0 0.00 0.00 0.00 47 1012.5
20260904132205 84 217 12.0 23.0 0.00 0.00 0.00 47 1012.6
20260904131705 85 220 11.0 26.0 0.00 0.00 0.00 46 1012.7
20260904131205 85 222 13.0 26.0 0.00 0.00 0.00 48 1013.0
20260904130707 84 224 14.0 24.0 0.00 0.00 0.00 47 1013.0
20260904130206 84 186 13.0 25.0 0.00 0.00 0.00 47 1012.8
20260904125705 84 222 15.0 25.0 0.00 0.00 0.00 47 1013.2
20260904124705 84 227 14.0 25.0 0.00 0.00 0.00 47 1013.3
20260904124205 84 215 13.0 23.0 0.00 0.00 0.00 47 1013.3
20260904123705 84 229 12.0 19.0 0.00 0.00 0.00 48 1013.4
20260904123205 84 233 11.0 23.0 0.00 0.00 0.00 49 1013.5
20260904122705 84 229 12.0 23.0 0.00 0.00 0.00 48 1013.5
20260904121705 83 234 15.0 24.0 0.00 0.00 0.00 48 1013.6
20260904121220 83 238 15.0 24.0 0.00 0.00 0.00 48 1013.6
20260904120728 83 264 12.0 22.0 0.00 0.00 0.00 49 1013.7
20260904120205 83 265 11.0 22.0 0.00 0.00 0.00 48 1013.7
20260904115705 83 240 12.0 22.0 0.00 0.00 0.00 49 1013.9
20260904115206 83 240 13.0 22.0 0.00 0.00 0.00 49 1013.9
20260904114705 82 283 13.0 23.0 0.00 0.00 0.00 50 1014.0
20260904114205 82 243 13.0 23.0 0.00 0.00 0.00 51 1014.1
20260904113706 81 217 13.0 23.0 0.00 0.00 0.00 50 1014.2
20260904112705 83 243 11.0 19.0 0.00 0.00 0.00 49 1014.3
20260904111706 82 285 11.0 24.0 0.00 0.00 0.00 50 1014.3
20260904111205 81 229 11.0 24.0 0.00 0.00 0.00 51 1014.4
20260904110205 81 253 13.0 25.0 0.00 0.00 0.00 51 1014.4
20260904105705 81 224 13.0 25.0 0.00 0.00 0.00 50 1014.5
20260904105206 80 264 15.0 26.0 0.00 0.00 0.00 52 1014.5
20260904104205 81 211 17.0 31.0 0.00 0.00 0.00 50 1014.6
20260904103705 80 231 18.0 31.0 0.00 0.00 0.00 51 1014.6
20260904103205 80 187 17.0 31.0 0.00 0.00 0.00 51 1014.5
20260904102206 80 236 14.0 26.0 0.00 0.00 0.00 53 1014.4
20260904101705 80 226 13.0 28.0 0.00 0.00 0.00 54 1014.5
20260904101206 80 204 14.0 28.0 0.00 0.00 0.00 55 1014.6
20260904100705 79 224 15.0 29.0 0.00 0.00 0.00 55 1014.6
20260904094704 78 226 16.0 24.0 0.00 0.00 0.00 58 1015.0
20260904094205 78 258 15.0 22.0 0.00 0.00 0.00 58 1015.4
20260904093706 78 214 14.0 22.0 0.00 0.00 0.00 58 1015.3
20260904093206 78 212 13.0 25.0 0.00 0.00 0.00 59 1015.3
20260904092705 78 239 13.0 25.0 0.00 0.00 0.00 60 1015.4
20260904092205 77 220 15.0 25.0 0.00 0.00 0.00 61 1015.6
20260904091206 77 231 13.0 24.0 0.00 0.00 0.00 61 1015.7
20260904090705 77 229 13.0 24.0 0.00 0.00 0.00 61 1015.8
20260904090205 76 233 14.0 24.0 0.00 0.00 0.00 63 1015.8
20260904085705 76 245 14.0 22.0 0.00 0.00 0.00 62 1015.8
20260904085205 76 219 13.0 22.0 0.00 0.00 0.00 63 1016.1
20260904084705 76 258 12.0 21.0 0.00 0.00 0.00 62 1015.9
20260904084205 76 239 12.0 21.0 0.00 0.00 0.00 64 1016.0
20260904083705 75 227 12.0 22.0 0.00 0.00 0.00 64 1016.0
20260904083205 74 245 12.0 22.0 0.00 0.00 0.00 65 1016.1
20260904082705 74 227 12.0 21.0 0.00 0.00 0.00 66 1016.1
20260904082205 73 257 12.0 21.0 0.00 0.00 0.00 67 1016.2
20260904081705 73 226 12.0 20.0 0.00 0.00 0.00 66 1016.2
20260904081206 73 210 13.0 20.0 0.00 0.00 0.00 67 1016.3
20260904080705 72 240 12.0 20.0 0.00 0.00 0.00 68 1016.4
20260904080205 72 210 12.0 18.0 0.00 0.00 0.00 69 1016.5
20260904075705 72 220 12.0 18.0 0.00 0.00 0.00 69 1016.5
20260904075206 71 222 12.0 18.0 0.00 0.00 0.00 70 1016.5
20260904074705 71 238 12.0 18.0 0.00 0.00 0.00 70 1016.6
20260904074206 71 201 11.0 18.0 0.00 0.00 0.00 71 1016.7
20260904073705 71 219 8.0 14.0 0.00 0.00 0.00 72 1016.8
20260904073205 70 233 6.0 14.0 0.00 0.00 0.00 73 1016.8
20260904072206 69 220 7.0 12.0 0.00 0.00 0.00 74 1016.8
20260904071705 69 197 6.0 10.0 0.00 0.00 0.00 74 1016.8
20260904071205 69 183 5.0 9.0 0.00 0.00 0.00 75 1017.0
20260904070705 69 210 6.0 9.0 0.00 0.00 0.00 75 1017.1
20260904070205 69 176 5.0 8.0 0.00 0.00 0.00 76 1017.1
20260904065705 68 219 4.0 8.0 0.00 0.00 0.00 76 1017.2
20260904065205 68 200 5.0 8.0 0.00 0.00 0.00 77 1017.2
20260904064705 67 212 5.0 7.0 0.00 0.00 0.00 78 1017.2
20260904064205 67 205 4.0 7.0 0.00 0.00 0.00 78 1017.3
20260904063705 67 226 4.0 7.0 0.00 0.00 0.00 79 1017.3
20260904063205 67 188 4.0 6.0 0.00 0.00 0.00 79 1017.3
20260904061705 67 208 4.0 9.0 0.00 0.00 0.00 78 1017.3
20260904060705 66 191 4.0 7.0 0.00 0.00 0.00 78 1017.3
20260904055706 66 196 3.0 12.0 0.00 0.00 0.00 78 1017.3
20260904055206 66 215 4.0 12.0 0.00 0.00 0.00 78 1017.3
20260904054705 66 158 6.0 10.0 0.00 0.00 0.00 78 1017.3
20260904054206 66 164 6.0 10.0 0.00 0.00 0.00 78 1017.3
20260904053705 66 195 6.0 10.0 0.00 0.00 0.00 78 1017.3